カタログに戻る

STARLINK-6167

運用中通信VLEO
NORAD 57126·PAYLOAD·🇺🇸 United States

打ち上げ Jun 23, 2023 から Cape Canaveral Space Force Station

Loading…

次のパス (今後24時間)

TLE

最新Source: CelesTrak SupGP

元期: Sep 14, 2026, 21:59 UTC

1 57126C 23090AB  26257.91645833  .00002748  00000+0  99538-4 0  2571
2 57126  43.0034 293.3096 0001840 287.8406 203.2982 15.27570061    18

AllMySatでSTARLINK-6167をリアルタイム追跡

Download on the App Store